BEIDOU-3 IGSO-3 (44709 NORAD) Tracking and Keplerian Element Data

This shows tracking and keplerian element data for the satellite.

Feedback or suggestion? Click here.




ElementValue
Catalog44709
NameBEIDOU-3 IGSO-3
Epoch Orbit51
Epoch Day337.88247896
Epoch Year2019
RAAN305.9073
Inclination58.6789
Eccentricity0.0025197
Argument of Perigee183.9689
Mean Anonmoly6.5155
Mean Motion1.00288561
Decay Rate-1.65E-06
L11 44709U 19073A 19337.88247896 -.00000165 00000-0 00000-0 0 9992
L22 44709 58.6789 305.9073 0025197 183.9689 6.5155 1.00288561 513

Live tracking and technical data element details for BEIDOU-3 IGSO-3 (NORAD 44709). BEIDOU-3 IGSO-3 can be tracked NOW for your location showing map with azimuth and elevation plus other details from your city location.

Track the satellite on the map from your city or location and see movement details for azimuth, elevation, latitude, longitude, range, height, and movement on the map or in text.







IsCatalogInMostPopularTable: catalog: 44709, numindb: 6
Update: records affected: 1



GetName: 44709 BEIDOU-3 IGSO-3

Hit Count: updated at: Thu, 05 Dec 2019 16:57:35 GMT